Location: *
(48.4333°N, 5.0333°W)
Time: 08:26:53
(UTC+00:00)

LilacSat-2 - Pass Details

Date: 26 October 2021
Orbit: 511 x 532 km, 97.5° (Epoch: 28 November)

Event Time Altitude Azimuth Distance (km) Brightness Sun altitude
Rises 05:39:56 0° 21° (NNE) 2,636 ? -13.3°
Reaches altitude 10° 05:42:12 10° 32° (NNE) 1,744 ? -13.0°
Maximum altitude 05:45:35 31° 96° (E) 911 ? -12.4°
Drops below altitude 10° 05:48:57 10° 161° (SSE) 1,733 ? -11.8°
Sets 05:51:12 0° 171° (S) 2,616 ? -11.5°
